"TOA5","AWS1","CR1000","7964","CR1000.Std.14","CPU:AWS1_114.CR1","64363","TBL110"
"TIMESTAMP","RECORD","Wind_spd_WVc(1)","Wind_spd_WVc(2)","Air_Temp_Avg","Humidity_Avg","SW_upper_Wm2_Avg","Rain_Tot","Press_Avg","Issui_Tot","Depth_cm","SR50A_Raw","Quality","Ground_Temp_Avg(1)","Ground_Temp_Avg(2)","SW_lower_Wm2_Avg","Albedo_Avg","SWC_per(1)","SWC_per(2)","Period(1)","Period(2)"
"TS","RN","","","","","","","","","","","","","","","","","","",""
"","","WVc","WVc","Avg","Avg","Avg","Tot","Avg","Tot","Smp","Smp","Smp","Avg","Avg","Avg","Avg","Smp","Smp","Smp","Smp"
"2018-03-15 00:00:00",331837,0.337,180.4,4.851,73.77,0,0,871.1413,0,56.89,2.587,172,0.565,1.023,0,0,53.95,62.06,34.26,36.15
"2018-03-15 00:10:00",331838,0.536,177.5,4.525,74.44,0,0,871.0381,0,57.11,2.588,177,0.58,1.025,0,0,53.95,62.06,34.26,36.15
"2018-03-15 00:20:00",331839,0.313,185.2,4.99,72.34,0,0,871.0381,0,56.83,2.586,181,0.583,1.025,0.1250988,0,53.95,62.06,34.26,36.15
"2018-03-15 00:30:00",331840,0,0,5.795,68.01,0,0,871.0233,0,57.02,2.58,169,0.591,1.03,0.489038,0,53.95,62.12,34.26,36.16
"2018-03-15 00:40:00",331841,0.116,216.4,6.201,65.31,0,0,870.9306,0,56.67,2.589,172,0.605,1.049,0.4852704,0,53.95,62.12,34.26,36.16
"2018-03-15 00:50:00",331842,0.452,194.4,4.376,73.33,0,0,870.9011,0,57.28,2.589,176,0.622,1.058,0,0,53.95,62.12,34.26,36.16
"2018-03-15 01:00:00",331843,0.447,196,4.113,74.36,0,0,870.918,0,57.19,2.589,168,0.628,1.062,0,0,53.95,62.12,34.26,36.16
"2018-03-15 01:10:00",331844,0.347,201.9,4.187,73.56,0,0,870.7852,0,57.01,2.59,173,0.635,1.066,0,0,53.95,62.12,34.26,36.16
"2018-03-15 01:20:00",331845,0.263,191,4.092,73.42,0,0,870.7852,0,56.91,2.592,169,0.638,1.067,0,0,53.95,62.12,34.26,36.16
"2018-03-15 01:30:00",331846,0.465,194.2,3.754,74.77,0,0,870.7852,0,57.11,2.591,170,0.646,1.073,0,0,53.95,62.12,34.26,36.16
"2018-03-15 01:40:00",331847,0.404,185.3,3.844,74.2,0,0,870.7852,0,57.35,2.589,187,0.651,1.072,0,0,53.95,62.12,34.26,36.16
"2018-03-15 01:50:00",331848,0.452,184.9,3.893,74.52,0,0,870.7734,0,57.03,2.592,168,0.651,1.067,0,0,53.95,62.12,34.26,36.16
"2018-03-15 02:00:00",331849,0.106,194.9,4.196,74.83,0,0,870.7871,0,57.17,2.585,170,0.661,1.053,0.2275157,0,53.95,62.12,34.26,36.16
"2018-03-15 02:10:00",331850,0.171,181.9,4.204,75.28,0,0,870.7899,0,57.05,2.591,168,0.672,1.084,0.1744311,0,53.95,62.18,34.26,36.17
"2018-03-15 02:20:00",331851,0.236,180.9,4.192,77.24,0,0,870.7902,0,57.21,2.587,169,0.67,1.082,0.1137627,0,53.95,62.18,34.26,36.17
"2018-03-15 02:30:00",331852,0.228,160.2,4.049,77.66,0,0,870.7852,0,56.96,2.594,172,0.67,1.06,0.003792062,0,53.95,62.12,34.26,36.16
"2018-03-15 02:40:00",331853,0.328,171.5,3.206,81.7,0,0,870.7631,0,57.08,2.594,170,0.668,1.045,0,0,53.95,62.18,34.26,36.17
"2018-03-15 02:50:00",331854,0.517,164,3.195,82.4,0,0,870.6044,0,57.22,2.593,185,0.673,1.072,0,0,53.95,62.18,34.26,36.17
"2018-03-15 03:00:00",331855,0.486,159.9,3.237,82.8,0,0,870.5439,0,57.2,2.592,186,0.677,1.08,0.02275266,0,53.95,62.18,34.26,36.17
"2018-03-15 03:10:00",331856,0.453,176.5,3.518,81.6,0,0,870.5435,0,57.01,2.593,177,0.676,1.059,0,0,53.95,62.18,34.26,36.17
"2018-03-15 03:20:00",331857,0.277,198.5,3.985,81.2,0,0,870.4146,0,57.27,2.582,171,0.676,1.068,0.4019657,0,53.95,62.18,34.26,36.17
"2018-03-15 03:30:00",331858,0.354,292.6,5.854,71.94,0,0,870.3143,0,55.71,2.595,172,0.679,1.094,1.020083,0,53.95,62.18,34.26,36.17
"2018-03-15 03:40:00",331859,0.373,181,4.194,77.64,0,0,870.2928,0,56.95,2.592,172,0.679,1.11,0,0,53.95,62.18,34.26,36.17
"2018-03-15 03:50:00",331860,0.435,169.6,3.639,80.5,0,0,870.2711,0,57.2,2.592,169,0.679,1.099,0,0,53.95,62.12,34.26,36.16
"2018-03-15 04:00:00",331861,0.488,154.7,3.701,79.93,0,0,870.2906,0,56.99,2.59,181,0.678,1.09,0.07205047,0,53.95,62.18,34.26,36.17
"2018-03-15 04:10:00",331862,0.417,168.1,4.257,76.7,0,0,870.2903,0,57.07,2.588,170,0.679,1.104,0.01896065,0,53.95,62.18,34.26,36.17
"2018-03-15 04:20:00",331863,0.385,123.9,4.741,75.62,0,0,870.2822,0,57.19,2.584,177,0.679,1.109,0.2275278,0,53.95,62.18,34.26,36.17
"2018-03-15 04:30:00",331864,0.084,155.6,4.803,75.24,0,0,870.2802,0,57.07,2.586,173,0.679,1.111,0,0,53.95,62.18,34.26,36.17
"2018-03-15 04:40:00",331865,0.094,139.6,5.064,74.01,0,0,870.3282,0,57.07,2.586,169,0.679,1.111,0.0379213,0,53.9,62.18,34.25,36.17
"2018-03-15 04:50:00",331866,0.088,148.8,4.832,73.74,0,0,870.373,0,56.99,2.59,181,0.679,1.106,0.00379213,0,53.95,62.12,34.26,36.16
"2018-03-15 05:00:00",331867,0.272,154.2,4.279,74.75,0,0,870.4966,0,57.41,2.587,173,0.679,1.103,0,0,53.95,62.18,34.26,36.17
"2018-03-15 05:10:00",331868,0.363,120.3,4.569,71.59,0,0,870.5368,0,56.89,2.591,177,0.679,1.104,0.1289324,0,53.9,62.18,34.25,36.17
"2018-03-15 05:20:00",331869,0.611,138.6,4.574,69.94,0,0,870.5334,0,57.11,2.586,168,0.679,1.106,0.2009829,0,53.9,62.12,34.25,36.16
"2018-03-15 05:30:00",331870,0.772,139.9,4.917,66.75,0,0,870.5305,0,57.11,2.586,181,0.679,1.107,0.1516852,0,53.9,62.18,34.25,36.17
"2018-03-15 05:40:00",331871,0.523,146.4,4.99,64.65,0,0,870.5253,0,57.05,2.587,177,0.679,1.106,0,0,53.95,62.12,34.26,36.16
"2018-03-15 05:50:00",331872,0.667,148.8,5.008,63.19,0,0,870.4631,0,56.99,2.586,182,0.679,1.111,0.01896065,0,53.9,62.18,34.25,36.17
"2018-03-15 06:00:00",331873,0.681,141.3,4.965,62.78,0,0,870.5377,0,57.29,2.583,171,0.679,1.111,0.1478931,0,53.9,62.12,34.25,36.16
"2018-03-15 06:10:00",331874,0.665,143.5,4.782,63.45,1.486662,0,870.5338,0,57.59,2.582,186,0.679,1.111,1.300701,1.048,53.9,62.12,34.25,36.16
"2018-03-15 06:20:00",331875,0.655,139.4,4.662,63.98,13.5647,0,870.5328,0,57.27,2.584,169,0.667,1.11,6.260758,0.472,53.9,62.12,34.25,36.16
"2018-03-15 06:30:00",331876,0.47,140.3,5.183,62.04,18.07557,0,870.5325,0,57.68,2.579,190,0.649,1.106,8.714143,0.482,53.9,62.12,34.25,36.16
"2018-03-15 06:40:00",331877,0.559,141.5,5.261,62.98,19.47112,0,870.5324,0,56.81,2.588,177,0.614,1.098,9.85903,0.506,53.9,62.12,34.25,36.16
"2018-03-15 06:50:00",331878,0.584,143,5.036,64.89,46.47357,0,870.5219,0,56.9,2.587,173,0.591,1.097,20.73812,0.465,53.9,62.12,34.25,36.16
"2018-03-15 07:00:00",331879,0.393,144.7,5.383,64.48,70.79665,0,870.3787,0,57.25,2.582,181,0.563,1.047,35.42934,0.499,53.9,62.12,34.25,36.16
"2018-03-15 07:10:00",331880,0.522,144.2,5.69,64.59,77.43159,0,870.4461,0,57.44,2.577,169,0.541,0.972,40.82123,0.528,53.9,62.18,34.25,36.17
"2018-03-15 07:20:00",331881,0.673,137.7,6.554,61.61,94.20672,0,870.3513,0,57.04,2.578,177,0.524,0.952,50.88708,0.541,53.9,62.12,34.25,36.16
"2018-03-15 07:30:00",331882,0.536,144.7,6.71,61.38,146.8685,0,870.4924,0,57.17,2.577,186,0.496,0.943,52.64814,0.379,53.9,62.12,34.25,36.16
"2018-03-15 07:40:00",331883,0.419,147.7,6.896,60.32,223.019,0,870.4882,0,57.19,2.574,177,0.568,0.933,62.2876,0.283,53.9,62.12,34.25,36.16
"2018-03-15 07:50:00",331884,0.86,139.9,7.433,57.94,220.4311,0,870.4166,0,56.97,2.575,173,0.592,1.045,71.85924,0.344,53.9,62.12,34.25,36.16
"2018-03-15 08:00:00",331885,0.868,146,7.618,57.9,180.4658,0,870.4278,0,56.95,2.574,172,0.593,1.03,78.71678,0.458,53.9,62.12,34.25,36.16
"2018-03-15 08:10:00",331886,0.886,145,7.767,57.67,214.0576,0,870.4322,0,57.21,2.571,185,0.566,1.006,76.66212,0.368,53.84,62.12,34.23,36.16
"2018-03-15 08:20:00",331887,1.062,138.4,8.15,55.93,265.9424,0,870.3698,0,56.84,2.573,185,0.538,0.987,107.0557,0.409,53.9,62.12,34.25,36.16
"2018-03-15 08:30:00",331888,1.163,139.5,8.2,55.11,189.8877,0,870.2052,0,57.02,2.571,181,0.51,1.002,110.0828,0.576,53.84,62.12,34.23,36.16
"2018-03-15 08:40:00",331889,1.056,149.1,8.47,54,227.5483,0,870.1661,0,56.93,2.571,188,0.484,0.993,115.9285,0.51,53.84,62.12,34.23,36.16
"2018-03-15 08:50:00",331890,1.05,135.1,8.42,52.88,224.0578,0,870.0563,0,56.79,2.573,185,0.471,0.982,100.2352,0.447,53.84,62.12,34.23,36.16
"2018-03-15 09:00:00",331891,0.604,152.8,8.46,52.98,240.1064,0,869.972,0,56.55,2.575,181,0.476,0.98,101.7725,0.424,53.84,62.12,34.23,36.16
"2018-03-15 09:10:00",331892,0.704,164.8,8.39,53.93,263.4239,0,869.9658,0,56.63,2.575,178,0.476,0.97,110.867,0.421,53.84,62.06,34.23,36.15
"2018-03-15 09:20:00",331893,0.417,72.7,8.35,54.35,240.6082,0,869.9973,0,56.77,2.574,177,0.468,0.969,99.27849,0.412,53.84,62.12,34.23,36.16
"2018-03-15 09:30:00",331894,0.5,98,8.19,54.6,223.2521,0,869.9594,0,56.93,2.572,173,0.47,0.967,90.91117,0.407,53.84,62.12,34.23,36.16
"2018-03-15 09:40:00",331895,0.832,153.9,8.43,53.44,236.8745,0,869.934,0,56.87,2.571,180,0.472,0.964,97.48225,0.412,53.84,62.06,34.23,36.15
"2018-03-15 09:50:00",331896,0.775,140.8,8.73,52.36,266.7648,0,869.9303,0,57.06,2.568,188,0.465,0.957,112.3965,0.421,53.84,62.06,34.23,36.15
"2018-03-15 10:00:00",331897,1.098,135,8.86,51.3,356.5114,0,869.9119,0,56.95,2.568,188,0.455,0.948,119.6318,0.353,53.84,62.06,34.23,36.15
"2018-03-15 10:10:00",331898,1.375,141.7,9.3,49.72,490.0784,0,869.7538,0,56.64,2.569,189,0.45,0.928,138.3495,0.296,53.78,62.06,34.22,36.15
"2018-03-15 10:20:00",331899,1.504,143.9,9.33,50.02,294.7833,0,869.625,0,56.84,2.569,185,0.456,0.931,117.1241,0.399,53.84,62.06,34.23,36.15
"2018-03-15 10:30:00",331900,1.329,133,9.41,49.33,338.6846,0,869.4592,0,56.58,2.57,183,0.46,0.937,152.031,0.449,53.78,62.06,34.22,36.15
"2018-03-15 10:40:00",331901,1.55,144.5,9.59,47.48,337.6807,0,869.2298,0,56.9,2.566,190,0.458,0.932,176.1844,0.52,53.78,62.06,34.22,36.15
"2018-03-15 10:50:00",331902,0.925,147,10.35,46.26,682.8619,0,869.0554,0,56.04,2.57,176,0.46,0.922,216.4671,0.348,53.78,62.06,34.22,36.15
"2018-03-15 11:00:00",331903,1.188,145.5,10.08,45.9,301.2209,0,868.8392,0,55.67,2.579,192,0.467,0.899,110.7312,0.382,53.84,62.06,34.23,36.15
"2018-03-15 11:10:00",331904,0.338,344.1,9.74,47.7,373.3939,0,868.6353,0,55.73,2.578,184,0.442,0.912,127.163,0.354,53.78,62.06,34.22,36.15
"2018-03-15 11:20:00",331905,0.267,69.87,10.24,46.69,449.3699,0,868.5846,0,55.5,2.577,192,0.43,0.873,141.9844,0.334,53.84,62.06,34.23,36.15
"2018-03-15 11:30:00",331906,0.469,347.4,10.08,47.95,624.9019,0,868.455,0,55.63,2.576,186,0.416,0.849,187.9192,0.309,53.84,62.06,34.23,36.15
"2018-03-15 11:40:00",331907,0.659,2.684,10.79,45.76,813.8897,0,868.322,0,55.46,2.573,182,0.397,0.829,242.0676,0.297,53.84,62.06,34.23,36.15
"2018-03-15 11:50:00",331908,1.014,152.3,11.28,42.1,892.6788,0,868.1445,0,55.39,2.573,176,0.386,0.815,303.5968,0.34,53.84,62.06,34.23,36.15
"2018-03-15 12:00:00",331909,0.927,108,11.54,40.84,920.2993,0,868.075,0,55.56,2.569,181,0.377,0.809,348.3488,0.378,53.78,62.06,34.22,36.15
"2018-03-15 12:10:00",331910,0.836,104.9,12.17,40.68,928.1537,0,867.9486,0,55.48,2.569,178,0.368,0.806,363.3022,0.391,53.84,62,34.23,36.13
"2018-03-15 12:20:00",331911,0.801,133.1,12.14,40.61,917.2172,0,867.8181,0,55.17,2.573,188,0.374,0.807,368.2487,0.401,53.78,62.06,34.22,36.15
"2018-03-15 12:30:00",331912,0.796,111.9,11.89,41.56,907.1231,0,867.6033,0,54.7,2.578,200,0.374,0.802,365.805,0.403,53.84,62.06,34.23,36.15
"2018-03-15 12:40:00",331913,0.917,100.2,12.12,40.71,903.1902,0,867.4812,0,54.93,2.575,188,0.356,0.766,359.5695,0.398,53.78,62.06,34.22,36.15
"2018-03-15 12:50:00",331914,0.615,95.1,11.87,42.46,823.515,0,867.2285,0,54.64,2.577,183,0.297,0.765,327.3959,0.398,53.78,62.06,34.22,36.15
"2018-03-15 13:00:00",331915,0.852,36.06,11.91,41.95,843.2383,0,866.919,0,54.9,2.576,189,0.28,0.758,333.6049,0.396,53.78,62,34.22,36.13
"2018-03-15 13:10:00",331916,0.58,112.3,12,40.23,810.0624,0,866.7536,0,54.91,2.575,192,0.281,0.757,317.2548,0.392,53.78,62,34.22,36.13
"2018-03-15 13:20:00",331917,1.013,138.8,11.83,38.44,833.1135,0,866.7258,0,54.84,2.576,182,0.28,0.759,323.8577,0.389,53.78,62,34.22,36.13
"2018-03-15 13:30:00",331918,1.05,140.4,11.79,38.74,832.1941,0,866.5438,0,54.19,2.583,185,0.231,0.74,316.0122,0.38,53.78,62,34.22,36.13
"2018-03-15 13:40:00",331919,0.898,142.1,11.56,39.31,793.1168,0,866.3124,0,54.68,2.578,177,0.242,0.716,283.562,0.358,53.78,62,34.22,36.13
"2018-03-15 13:50:00",331920,0.424,315.4,11.41,43.25,783.0823,0,866.2346,0,54.84,2.579,185,0.24,0.718,241.5806,0.308,53.73,62,34.21,36.13
"2018-03-15 14:00:00",331921,0.506,71.13,11.74,44.04,761.3827,0,866.0471,0,54.44,2.579,189,0.245,0.751,182.268,0.239,53.73,62,34.21,36.13
"2018-03-15 14:10:00",331922,0.337,62.97,11.48,44.61,727.4916,0,865.9293,0,54.33,2.583,186,0.25,0.744,109.7722,0.15,53.73,62,34.21,36.13
"2018-03-15 14:20:00",331923,0.645,39.55,11.15,45.09,295.225,0,866.0493,0,55.2,2.577,192,0.252,0.721,63.83205,0.291,53.78,62,34.22,36.13
"2018-03-15 14:30:00",331924,0.506,43.61,11.14,44.96,100.8128,0,866.0514,0,54.63,2.582,174,0.284,0.717,49.94053,0.497,53.78,62,34.22,36.13
"2018-03-15 14:40:00",331925,0.418,175.7,10.97,46.38,108.8947,0,866.0514,0,54.04,2.588,189,0.344,0.718,48.38355,0.445,53.73,62,34.21,36.13
"2018-03-15 14:50:00",331926,1.186,142.8,10.81,44.7,99.34341,0,866.0471,0,54.39,2.586,189,0.366,0.723,42.54964,0.429,53.67,62,34.19,36.13
"2018-03-15 15:00:00",331927,1.16,140.5,10.56,44.79,88.06443,0,866.0514,0,54.3,2.588,188,0.327,0.725,36.78435,0.417,53.78,62,34.22,36.13
"2018-03-15 15:10:00",331928,0.734,154.7,10.38,45.65,95.63039,0,866.0535,0,54.09,2.59,189,0.289,0.748,38.22496,0.4,53.78,62,34.22,36.13
"2018-03-15 15:20:00",331929,0.745,125.8,10.2,46.57,109.0734,0,866.1693,0,54.37,2.589,189,0.306,0.743,41.08725,0.377,53.9,62.06,34.25,36.15
"2018-03-15 15:30:00",331930,0.201,6.859,10.02,48.71,125.649,0,866.304,0,54.08,2.592,189,0.316,0.756,46.28735,0.368,54.07,62.12,34.29,36.16
"2018-03-15 15:40:00",331931,0.213,105.1,9.79,50.46,114.433,0,866.3019,0,53.91,2.596,189,0.346,0.762,41.74559,0.365,54.41,62.18,34.37,36.17
"2018-03-15 15:50:00",331932,0.477,33.87,9.62,51.72,116.894,0,866.1988,0,54.05,2.596,190,0.382,0.775,43.25541,0.37,54.58,62.24,34.41,36.19
"2018-03-15 16:00:00",331933,0.49,39.52,9.22,53.41,97.33955,0,866.1238,0,54.02,2.596,189,0.377,0.784,36.14486,0.371,54.69,62.36,34.44,36.21
"2018-03-15 16:10:00",331934,0.194,33.65,9.3,52.41,91.92673,0,866.2193,0,53.77,2.598,189,0.373,0.791,34.14891,0.372,54.8,62.6,34.46,36.27
"2018-03-15 16:20:00",331935,0.35,107.1,9.43,51.34,92.47218,0,866.2753,0,53.79,2.597,189,0.405,0.808,34.19933,0.37,54.92,62.72,34.49,36.3
"2018-03-15 16:30:00",331936,0.29,42.59,9.36,51.72,79.48495,0,866.3373,0,54.05,2.596,187,0.402,0.811,29.62243,0.373,55.03,62.9,34.52,36.34
"2018-03-15 16:40:00",331937,0.143,63.04,9.13,52.74,56.99671,0,866.3605,0,53.91,2.598,187,0.401,0.822,20.95607,0.367,55.09,63.02,34.53,36.36
"2018-03-15 16:50:00",331938,0.19,345.3,8.87,54.25,37.65207,0,866.3464,0,53.77,2.601,188,0.408,0.84,13.53623,0.358,55.15,63.14,34.55,36.39
"2018-03-15 17:00:00",331939,0.085,40.98,8.77,54.98,23.70354,0,866.1964,0,53.69,2.602,188,0.389,0.876,8.041405,0.339,55.2,63.26,34.56,36.42
"2018-03-15 17:10:00",331940,0.167,35.03,8.51,56.77,18.86143,0,866.142,0,53.91,2.6,188,0.421,0.892,6.396745,0.339,55.26,63.32,34.57,36.43
"2018-03-15 17:20:00",331941,0.305,19.85,8.35,58.46,8.854929,0,866.1827,0,53.69,2.605,188,0.423,0.893,2.656468,0.292,55.26,63.39,34.57,36.44
"2018-03-15 17:30:00",331942,0.093,303.2,7.876,60.43,5.985822,0,866.1955,0,53.58,2.607,189,0.436,0.893,1.48929,0.244,55.26,63.45,34.57,36.46
"2018-03-15 17:40:00",331943,0.099,351.6,7.878,60.3,3.619791,0,866.3829,0,53.52,2.608,189,0.45,0.89,0.6176952,0.166,55.43,63.45,34.61,36.46
"2018-03-15 17:50:00",331944,0.448,26.52,7.623,61.44,2.287425,0,866.2545,0,53.87,2.605,190,0.46,0.868,0.2197934,0.077,55.26,63.51,34.57,36.47
"2018-03-15 18:00:00",331945,0.214,10.54,7.922,60.73,0.6091939,0,866.1428,0,53.34,2.609,189,0.461,0.857,0,0,55.32,63.51,34.59,36.47
"2018-03-15 18:10:00",331946,0.32,129.9,7.452,62.6,0,0,866.145,0,53.87,2.606,189,0.461,0.838,0,0,55.32,63.57,34.59,36.49
"2018-03-15 18:20:00",331947,0.286,347.6,7.666,63.14,0,0,866.1428,0,53.69,2.606,189,0.461,0.836,0,0,55.32,63.57,34.59,36.49
"2018-03-15 18:30:00",331948,0.237,20.33,7.747,63.31,0,0,865.9512,0,53.61,2.608,189,0.461,0.826,0,0,55.32,63.63,34.59,36.5
"2018-03-15 18:40:00",331949,0.192,42.1,7.605,64.78,0,0,865.8901,0,53.59,2.608,189,0.458,0.815,0,0,55.32,63.69,34.59,36.51
"2018-03-15 18:50:00",331950,0.199,9.61,7.635,65.42,0,0,865.9849,0,53.34,2.611,189,0.456,0.825,0,0,55.32,63.69,34.59,36.51
"2018-03-15 19:00:00",331951,0.127,63.99,7.318,66.88,0,0,865.987,0,53.55,2.61,189,0.442,0.836,0,0,55.32,63.69,34.59,36.51
"2018-03-15 19:10:00",331952,0.319,80.6,7.219,68.23,0,0,865.8901,0,53.18,2.614,189,0.448,0.84,0,0,55.32,63.75,34.59,36.53
"2018-03-15 19:20:00",331953,0.148,93.3,7.186,68.86,0,0,865.8417,0,53.38,2.613,188,0.44,0.853,0,0,55.32,63.75,34.59,36.53
"2018-03-15 19:30:00",331954,0.276,135.1,6.977,69.7,0,0,865.6437,0,53.62,2.611,188,0.433,0.863,0,0,55.32,63.75,34.59,36.53
"2018-03-15 19:40:00",331955,0.373,152.6,6.983,70.25,0,0,865.6437,0,53.59,2.611,189,0.426,0.876,0,0,55.32,63.81,34.59,36.54
"2018-03-15 19:50:00",331956,0.274,82,7.107,70.44,0,0,865.6479,0,53.3,2.614,189,0.436,0.894,0,0,55.32,63.81,34.59,36.54
"2018-03-15 20:00:00",331957,0.561,126.9,6.939,72.05,0,0,865.6647,0,53.49,2.612,189,0.451,0.916,0,0,55.32,63.75,34.59,36.53
"2018-03-15 20:10:00",331958,0.411,110.2,6.821,73.45,0,0,865.6331,0,53.24,2.615,190,0.467,0.929,0,0,55.32,63.81,34.59,36.54
"2018-03-15 20:20:00",331959,0.574,142.2,6.724,74.13,0,0,865.4899,0,53.47,2.613,189,0.472,0.936,0,0,55.32,63.81,34.59,36.54
"2018-03-15 20:30:00",331960,0.677,143.7,6.884,74.39,0,0,865.3846,0,53.46,2.613,190,0.473,0.937,0,0,55.32,63.87,34.59,36.55
"2018-03-15 20:40:00",331961,0.874,124.1,6.946,75.49,0,0,865.3994,0,53.02,2.617,190,0.481,0.938,0,0,55.32,63.81,34.59,36.54
"2018-03-15 20:50:00",331962,0.7,135.1,6.812,77.13,0,0,865.4288,0,53.3,2.614,189,0.473,0.938,0,0,55.32,63.81,34.59,36.54
"2018-03-15 21:00:00",331963,0.855,123.4,6.784,78.21,0,0,865.5784,0,52.96,2.618,189,0.481,0.938,0,0,55.32,63.81,34.59,36.54
"2018-03-15 21:10:00",331964,0.999,127.5,6.834,79.08,0,0,865.6352,0,53.22,2.615,189,0.479,0.938,0,0,55.26,63.81,34.57,36.54
"2018-03-15 21:20:00",331965,0.607,121.6,6.826,79.72,0,0,865.5383,0,53.28,2.615,189,0.486,0.938,0,0,55.32,63.81,34.59,36.54
"2018-03-15 21:30:00",331966,0.623,119.7,6.509,84.1,0,0,865.4183,0,53.06,2.619,189,0.474,0.935,0,0,55.32,63.87,34.59,36.55
"2018-03-15 21:40:00",331967,0.894,121,6.19,89.7,0,0,865.3552,0,53.02,2.62,189,0.494,0.937,0,0,55.32,63.81,34.59,36.54
"2018-03-15 21:50:00",331968,0.355,50.12,6.011,93.3,0,0,865.1993,0,53.19,2.62,189,0.498,0.938,0,0,55.32,63.81,34.59,36.54
"2018-03-15 22:00:00",331969,0.826,133.2,5.961,95.1,0,0,865.1466,0,53.04,2.621,188,0.507,0.938,0,0,55.26,63.81,34.57,36.54
"2018-03-15 22:10:00",331970,0.489,130.4,5.862,91.6,0,0,865.1003,0,53.27,2.62,189,0.512,0.938,0,0,55.26,63.81,34.57,36.54
"2018-03-15 22:20:00",331971,0.524,162.6,5.833,90.9,0,0,864.913,0,53.03,2.622,189,0.512,0.938,0.007581673,0,55.32,63.81,34.59,36.54
"2018-03-15 22:30:00",331972,0.539,77.46,5.708,91.3,0,0.5,865.0151,0,53.07,2.622,189,0.507,0.938,0.03411753,0,55.32,63.75,34.59,36.53
"2018-03-15 22:40:00",331973,0.667,96.9,5.699,90.6,0,0,864.9428,0,53.09,2.623,189,0.509,0.938,0.1743785,0,55.26,63.75,34.57,36.53
"2018-03-15 22:50:00",331974,0.61,40.13,5.425,97.1,0,0.5,864.921,0,52.81,2.626,191,0.506,0.938,0,0,55.26,63.75,34.57,36.53
"2018-03-15 23:00:00",331975,0.455,98.8,5.461,97.4,0,0,864.9153,0,52.95,2.625,189,0.506,0.938,0.003790837,0,55.32,63.75,34.59,36.53
"2018-03-15 23:10:00",331976,0.688,99.3,5.281,99.6,0,0.5,864.9143,0,52.87,2.626,188,0.506,0.939,0,0,55.32,63.75,34.59,36.53
"2018-03-15 23:20:00",331977,0.656,90.9,5.254,100,0,0,864.7044,0.5,52.93,2.626,189,0.506,0.938,0,0,55.26,63.75,34.57,36.53
"2018-03-15 23:30:00",331978,0.413,113.9,5.215,100,0.01179488,0,864.6974,0,52.81,2.627,189,0.506,0.939,0,0,55.32,63.75,34.59,36.53
"2018-03-15 23:40:00",331979,0.885,186.6,5.352,100,0.003931627,0.5,864.5367,0,52.32,2.631,189,0.506,0.938,0,0,55.32,63.75,34.59,36.53
"2018-03-15 23:50:00",331980,0.563,98.3,5.292,100,0,0,864.454,0.5,52.87,2.626,189,0.506,0.939,0,0,55.26,63.75,34.57,36.53
